Weather History for Omaha Millard, NE

Change the Weather History Date:

Saturday, June 7, 2014

  Actual Average (KOMA) Record (KOMA)
Temperature  
Mean Temperature 66 °F 70 °F  
Max Temperature 73 °F 81 °F 98 °F (1981)
Min Temperature 61 °F 58 °F 40 °F (1935)
Degree Days  
Heating Degree Days 0 1  
Month to date heating degree days 9  
Since 1 June heating degree days 9  
Since 1 July heating degree days 6159  
Cooling Degree Days 2 5  
Month to date cooling degree days 33  
Year to date cooling degree days 115  
Since 1 June cooling degree days 33  
Growing Degree Days 16 (Base 50)    
Moisture  
Dew Point 60 °F    
Average Humidity 77    
Maximum Humidity 88    
Minimum Humidity 59    
Precipitation  
Precipitation 0.02 in 0.14 in 1.80 in (1908)
Month to date precipitation 1.09  
Year to date precipitation 12.37  
Snow  
Snow 0.00 in 0.00 in - ()
Month to date snowfall 0.0  
Since 1 July snowfall 26.4  
Snow Depth -    
Sea Level Pressure  
Sea Level Pressure 29.95 in    
Wind  
Wind Speed 5 mph (North)    
Max Wind Speed 16 mph    
Max Gust Speed 23 mph    
Visibility 10 miles    
Events Rain    
T = Trace of Precipitation, MM = Missing Value Source: NWS Daily Summary

Daily Weather History Graph

Daily Weather History Graph

Search for Another Location

Airport:

Trip Planner

Search our weather history database for the weather conditions in past years. The results will help you decide how hot, cold, wet, or windy it might be!

Date:

Astronomy

Jun. 07, 2014 Rise Set
Actual Time 5:51 AM CDT 8:55 PM CDT
Civil Twilight 5:18 AM CDT 9:28 PM CDT
Nautical Twilight 4:35 AM CDT 10:11 PM CDT
Astronomical Twilight 3:45 AM CDT 11:01 PM CDT
Moon 3:10 PM CDT (6/7) 2:17 AM CDT (6/7)
Length of Visible Light 16h 09m
Length of Day
15h 03m
Waxing Gibbous, 68% of the Moon is Illuminated
Jun 7
Waxing Gibbous
Jun 12
Full
Jun 19
Last Quarter
Jun 27
New
Jul 5
First Quarter

Hourly Weather History & Observations

Time (CDT) Temp. Dew Point Humidity Pressure Visibility Wind Dir Wind Speed Gust Speed Precip Events Conditions
12:15 AM 72.0 °F 64.2 °F 77% 29.91 in 10.0 mi SSE 5.8 mph - N/A   Clear
12:35 AM 71.1 °F 64.4 °F 79% 29.91 in 10.0 mi ESE 3.5 mph - N/A   Clear
12:55 AM 70.3 °F 64.6 °F 82% 29.90 in 10.0 mi SE 3.5 mph - N/A   Scattered Clouds
1:15 AM 70.2 °F 64.8 °F 83% 29.91 in 10.0 mi SE 4.6 mph - N/A   Scattered Clouds
1:35 AM 70.2 °F 64.8 °F 83% 29.91 in 10.0 mi SSE 3.5 mph - N/A   Clear
1:55 AM 70.5 °F 64.9 °F 82% 29.92 in 10.0 mi SSE 5.8 mph - N/A   Clear
2:15 AM 70.0 °F 64.8 °F 83% 29.91 in 10.0 mi SSE 3.5 mph - N/A   Clear
2:35 AM 69.3 °F 64.6 °F 85% 29.90 in 10.0 mi Calm Calm - N/A   Clear
2:55 AM 69.8 °F 64.6 °F 83% 29.90 in 10.0 mi Calm Calm - N/A   Clear
3:15 AM 68.9 °F 64.6 °F 86% 29.91 in 10.0 mi Calm Calm - N/A   Clear
3:35 AM 68.2 °F 64.4 °F 88% 29.90 in 7.0 mi Calm Calm - N/A   Clear
3:55 AM 68.0 °F 64.4 °F 88% 29.90 in 7.0 mi Calm Calm - N/A   Clear
4:15 AM 68.0 °F 64.4 °F 88% 29.89 in 7.0 mi Calm Calm - N/A   Clear
4:35 AM 68.7 °F 64.0 °F 85% 29.89 in 10.0 mi Calm Calm - N/A   Clear
4:55 AM 69.1 °F 63.9 °F 83% 29.89 in 10.0 mi Calm Calm - N/A   Scattered Clouds
5:15 AM 69.3 °F 64.0 °F 83% 29.89 in 10.0 mi Calm Calm - N/A   Mostly Cloudy
5:35 AM 69.4 °F 64.4 °F 84% 29.89 in 10.0 mi Calm Calm - N/A   Overcast
5:55 AM 69.1 °F 63.3 °F 82% 29.90 in 10.0 mi NNE 3.5 mph - N/A   Overcast
6:15 AM 68.0 °F 61.0 °F 78% 29.89 in 10.0 mi NE 3.5 mph - N/A   Scattered Clouds
6:35 AM 67.6 °F 60.8 °F 79% 29.89 in 10.0 mi North 4.6 mph - N/A   Scattered Clouds
6:55 AM 67.1 °F 61.2 °F 81% 29.89 in 10.0 mi North 6.9 mph - N/A   Overcast
7:15 AM 66.6 °F 60.1 °F 80% 29.89 in 10.0 mi North 3.5 mph - N/A   Overcast
7:35 AM 66.2 °F 59.9 °F 80% 29.90 in 10.0 mi North 3.5 mph - N/A   Light Drizzle
7:55 AM 65.7 °F 59.9 °F 82% 29.91 in 10.0 mi NNW 4.6 mph - N/A Rain Rain
8:15 AM 65.3 °F 60.1 °F 83% 29.92 in 10.0 mi Calm Calm - N/A Rain Light Rain
8:35 AM 65.3 °F 60.4 °F 84% 29.91 in 10.0 mi Calm Calm - N/A Rain Rain
8:55 AM 65.3 °F 60.8 °F 85% 29.91 in 10.0 mi NNW 4.6 mph - N/A   Drizzle
9:15 AM 64.9 °F 60.8 °F 86% 29.92 in 10.0 mi NW 9.2 mph - 0.01 in Rain Light Rain
9:35 AM 64.6 °F 60.6 °F 87% 29.92 in 10.0 mi NW 6.9 mph - 0.02 in Rain Rain
9:55 AM 64.6 °F 60.6 °F 87% 29.92 in 10.0 mi NW 5.8 mph - 0.02 in Rain Light Rain
10:15 AM 64.9 °F 60.8 °F 86% 29.92 in 10.0 mi NNW 10.4 mph - N/A Rain Rain
10:35 AM 65.1 °F 60.3 °F 84% 29.93 in 10.0 mi NNW 10.4 mph - N/A Rain Light Rain
10:55 AM 65.3 °F 60.6 °F 85% 29.94 in 10.0 mi North 6.9 mph - N/A   Overcast
11:15 AM 65.8 °F 60.3 °F 82% 29.94 in 10.0 mi NNW 9.2 mph 18.4 mph N/A   Overcast
11:35 AM 66.2 °F 60.4 °F 82% 29.94 in 10.0 mi North 9.2 mph - N/A   Overcast
12:15 PM 66.2 °F 59.9 °F 80% 29.96 in 10.0 mi North 8.1 mph - N/A   Overcast
12:35 PM 66.2 °F 59.5 °F 79% 29.96 in 10.0 mi NNE 3.5 mph - N/A   Overcast
12:55 PM 68.4 °F 60.3 °F 75% 29.96 in 10.0 mi Calm Calm - N/A   Mostly Cloudy
1:15 PM 69.3 °F 59.5 °F 71% 29.96 in 10.0 mi NE 3.5 mph - N/A   Mostly Cloudy
1:35 PM 70.0 °F 57.9 °F 65% 29.95 in 10.0 mi North 4.6 mph - N/A   Scattered Clouds
1:55 PM 70.9 °F 57.7 °F 63% 29.95 in 10.0 mi NNE 4.6 mph - N/A   Scattered Clouds
2:15 PM 70.7 °F 58.5 °F 65% 29.94 in 10.0 mi East 5.8 mph - N/A   Mostly Cloudy
2:35 PM 71.4 °F 57.0 °F 60% 29.94 in 10.0 mi North 4.6 mph - N/A   Mostly Cloudy
2:55 PM 72.3 °F 57.9 °F 60% 29.94 in 10.0 mi NNW 6.9 mph - N/A   Scattered Clouds
3:15 PM 72.5 °F 57.2 °F 59% 29.94 in 10.0 mi North 4.6 mph - N/A   Scattered Clouds
3:35 PM 72.1 °F 57.6 °F 60% 29.94 in 10.0 mi North 4.6 mph - N/A   Mostly Cloudy
3:55 PM 71.8 °F 58.3 °F 62% 29.95 in 10.0 mi North 4.6 mph - N/A   Overcast
4:15 PM 72.1 °F 58.3 °F 62% 29.94 in 10.0 mi North 3.5 mph - N/A   Overcast
4:35 PM 72.9 °F 59.9 °F 64% 29.95 in 10.0 mi NNW 8.1 mph 16.1 mph N/A   Overcast
4:55 PM 71.6 °F 60.1 °F 67% 29.96 in 10.0 mi North 9.2 mph 17.3 mph N/A   Mostly Cloudy
5:15 PM 71.1 °F 59.7 °F 67% 29.96 in 10.0 mi NNW 8.1 mph - N/A   Overcast
5:35 PM 70.3 °F 59.2 °F 68% 29.97 in 10.0 mi North 10.4 mph 18.4 mph N/A   Mostly Cloudy
5:55 PM 69.3 °F 58.5 °F 68% 29.97 in 10.0 mi NNW 11.5 mph 18.4 mph N/A   Mostly Cloudy
6:15 PM 67.8 °F 57.7 °F 70% 29.98 in 10.0 mi NNW 16.1 mph 23.0 mph N/A   Mostly Cloudy
6:35 PM 67.1 °F 57.4 °F 71% 29.98 in 10.0 mi North 11.5 mph 19.6 mph N/A   Scattered Clouds
6:55 PM 66.4 °F 57.0 °F 72% 29.99 in 10.0 mi North 5.8 mph 18.4 mph N/A   Clear
7:15 PM 66.6 °F 57.4 °F 72% 30.00 in 10.0 mi NNW 8.1 mph 19.6 mph N/A   Scattered Clouds
7:35 PM 65.8 °F 56.7 °F 72% 30.01 in 10.0 mi NNW 8.1 mph 18.4 mph N/A   Scattered Clouds
7:55 PM 65.5 °F 56.7 °F 73% 30.01 in 10.0 mi NNW 4.6 mph 18.4 mph N/A   Clear
8:15 PM 65.3 °F 56.3 °F 73% 30.01 in 10.0 mi North 5.8 mph - N/A   Clear
8:35 PM 64.6 °F 56.3 °F 74% 30.01 in 10.0 mi North 4.6 mph - N/A   Clear
8:55 PM 64.0 °F 55.8 °F 74% 30.02 in 10.0 mi NNW 5.8 mph - N/A   Clear
9:15 PM 63.7 °F 55.9 °F 76% 30.02 in 10.0 mi NNW 6.9 mph - N/A   Clear
9:35 PM 63.3 °F 55.9 °F 77% 30.03 in 10.0 mi NNW 8.1 mph - N/A   Clear
9:55 PM 63.0 °F 55.6 °F 77% 30.03 in 10.0 mi NNW 8.1 mph - N/A   Clear
10:15 PM 62.6 °F 55.4 °F 77% 30.04 in 10.0 mi NNW 6.9 mph - N/A   Clear
10:35 PM 62.6 °F 55.4 °F 77% 30.05 in 10.0 mi NNW 5.8 mph - N/A   Scattered Clouds
10:55 PM 62.4 °F 54.0 °F 74% 30.06 in 10.0 mi North 5.8 mph - N/A   Clear
11:15 PM 61.7 °F 53.8 °F 75% 30.06 in 10.0 mi North 5.8 mph - N/A   Clear
11:35 PM 61.7 °F 54.0 °F 76% 30.06 in 10.0 mi North 5.8 mph - N/A   Scattered Clouds
11:55 PM 61.0 °F 53.8 °F 77% 30.06 in 10.0 mi North 3.5 mph - N/A   Clear